Regional Weather Roundup
Issued by NWS

Home | Current Version | Previous Version | Text Only | Print | Product List | Glossary Off
Versions: 1 2 3 4 5 6 7 8 9 10 11 12 13 14 15 16 17 18 19 20 21 22 23 24 25 26 27 28 29 30 31 32 33 34 35 36 37 38 39 40 41 42 43 44 45 46 47 48 49 50

334
ASUS45 KBOI 281610
RWRID

IDAHO REGIONAL WEATHER ROUNDUP
NATIONAL WEATHER SERVICE BOISE ID
1000 AM MDT SAT MAY 28 2016

NOTE: "FAIR" INDICATES FEW OR NO CLOUDS BELOW 12000 FEET
WITH NO SIGNIFICANT WEATHER AND/OR OBSTRUCTIONS TO VISIBILITY

IDZ012-014-281700-
SOUTHWEST IDAHO


CITY           SKY/WX    TMP DP  RH WIND       PRES   REMARKS
BOISE          SUNNY     53  32  44 W6        30.10R
CALDWELL       SUNNY     56  33  42 W10       30.11S
MOUNTAIN HOME  SUNNY     61  35  38 NW14      30.08S
$$

IDZ016-017-281700-
SOUTHCENTRAL IDAHO


CITY           SKY/WX    TMP DP  RH WIND       PRES   REMARKS
BURLEY         SUNNY     55  33  43 W14G22    30.08R
JEROME         SUNNY     53  32  44 SW13      30.09R
TWIN FALLS     SUNNY     55  32  41 W12       30.10R
$$

IDZ019>023-281700-
SOUTHEAST IDAHO


CITY           SKY/WX    TMP DP  RH WIND       PRES   REMARKS
IDAHO FALLS    SUNNY     52  32  46 SW17G26   30.06R
POCATELLO      SUNNY     55  33  43 SW15      30.09R
REXBURG        SUNNY     51  32  48 SW16G24   30.05S
$$

IDZ006-010-011-018-031-032-281700-
CENTRAL IDAHO MOUNTAINS


CITY           SKY/WX    TMP DP  RH WIND       PRES   REMARKS
MCCALL         SUNNY     44  32  62 SE5       30.07R
HAILEY         SUNNY     50  37  62 SE10      30.07R
STANLEY          N/A     46  28  49 NE3       30.09R
SALMON         CLOUDY    52  34  50 N6        30.03S
CHALLIS        MOSUNNY   50  34  54 S3        30.04S
$$

IDZ002-004-006-007-026-281700-
NORTHERN IDAHO


CITY           SKY/WX    TMP DP  RH WIND       PRES   REMARKS
LEWISTON       MOSUNNY   56  40  55 N7        30.09S
LOWELL           N/A     52  42  69 CALM      30.10F
COEUR D`ALENE  MOSUNNY   52  37  58 W6        30.06R
MULLAN PASS    PTSUNNY   37  29  72 VRB5      30.05R WCI  33
$$




USA.gov is the U.S. government's official web portal to all federal, state and local government web resources and services.